Location: Las Navas
(40.6024°N, 4.3345°W)
Time: 09:11:35
(UTC+00:00)

SL-4 R/B - Pass Details

Date: 03 April 2020
Orbit: 428 x 666 km, 51.6° (Epoch: 29 May)

Event Time Altitude Azimuth Distance (km) Brightness Sun altitude
Rises 21:16:59 0° 255° (WSW) 2,384 5.8 -27.4°
Reaches altitude 10° 21:19:11 10° 265° (W) 1,520 4.8 -27.8°
Enters shadow 21:20:20 18° 276° (W) 1,111 4.2 -28.0°
